GMT,Max TemperatureF,Mean TemperatureF,Min TemperatureF,Max Dew PointF,MeanDew PointF,Min DewpointF,Max Humidity, Mean Humidity, Min Humidity, Max Sea Level PressureIn, Mean Sea Level PressureIn, Min Sea Level PressureIn, Max VisibilityMiles, Mean VisibilityMiles, Min VisibilityMiles, Max Wind SpeedMPH, Mean Wind SpeedMPH, Max Gust SpeedMPH,PrecipitationIn, CloudCover, Events, WindDirDegrees
2011-10-1,59,57,55,59,56,55,100,99,94,30.21,30.17,30.12,6,4,1,13,6,,0.00,6,Rain,33
2011-10-2,64,60,55,63,59,55,100,97,88,30.21,30.11,30.06,6,4,0,14,7,,0.00,6,Fog-Rain,261
2011-10-3,68,58,48,59,54,45,100,83,68,30.06,29.94,29.80,6,6,6,30,13,46,0.00,5,Rain,238
2011-10-4,59,54,48,55,47,45,94,79,63,30.06,30.02,29.92,6,6,6,22,15,32,0.00,6,Rain,234
2011-10-5,68,59,48,61,54,45,100,82,68,29.89,29.75,29.65,6,6,2,29,23,43,0.00,5,Rain,240
2011-10-6,53,48,44,46,42,37,93,81,54,29.95,29.78,29.71,6,6,6,37,24,53,0.00,4,Rain,261
2011-10-7,57,52,46,48,46,43,93,84,67,30.30,30.16,29.98,6,6,6,25,19,,0.00,4,Rain,283
2011-10-8,64,55,46,59,53,45,100,89,73,30.30,30.17,30.06,6,6,5,29,18,40,0.00,6,Rain,257
2011-10-9,62,60,59,59,58,55,100,89,82,30.06,29.96,29.89,6,6,5,30,24,39,0.00,6,Rain,249
2011-10-10,60,60,59,61,58,55,100,92,82,29.92,29.86,29.80,6,5,2,34,25,44,0.00,6,Rain,246
2011-10-11,60,60,59,59,58,55,100,93,82,30.06,29.98,29.86,6,6,3,31,24,46,0.00,6,Rain,254
2011-10-12,64,60,53,59,55,52,100,89,77,30.27,30.11,30.01,6,6,6,20,15,,0.00,6,Rain,267
2011-10-13,60,55,50,55,53,50,100,90,72,30.33,30.31,30.27,6,6,0,13,6,,0.00,5,Fog,119
2011-10-14,60,50,41,57,51,41,100,92,72,30.33,30.28,30.21,6,4,0,18,6,30,0.00,5,Fog-Rain,168
2011-10-15,59,55,50,55,52,50,100,85,72,30.21,30.13,30.09,6,6,4,17,11,,0.00,6,Rain,181
2011-10-16,57,52,46,50,46,43,100,81,59,30.15,30.10,30.04,6,6,6,17,10,,0.00,4,,232
2011-10-17,57,49,41,50,44,37,100,83,67,30.01,29.77,29.50,6,6,5,34,19,52,0.00,4,Rain,227
2011-10-18,51,46,41,43,39,37,93,81,62,29.95,29.78,29.71,6,6,6,33,22,43,0.00,1,Rain,260
2011-10-19,50,44,37,41,38,36,100,86,62,30.33,30.13,29.95,6,6,6,18,14,30,0.00,4,,280
2011-10-20,51,45,39,48,41,37,93,85,71,30.33,30.26,30.09,6,6,6,21,13,,0.00,6,Rain,234
2011-10-21,57,54,51,50,48,45,94,80,67,30.09,29.99,29.89,6,6,6,23,18,33,0.00,6,Rain,214
2011-10-22,55,52,48,52,48,43,100,81,67,29.89,29.67,29.53,6,6,6,22,14,33,0.00,6,Rain,180
2011-10-23,59,54,48,55,50,43,100,91,82,29.53,29.36,29.12,6,5,3,31,12,45,0.00,6,Rain,153
2011-10-24,59,54,48,55,51,46,100,93,82,29.21,29.10,29.03,6,5,2,31,19,47,0.00,6,Rain,160
2011-10-25,53,47,41,46,44,41,100,87,67,29.39,29.26,29.12,6,6,3,20,9,30,0.00,5,Rain,227
2011-10-26,53,48,42,43,41,39,93,78,62,29.53,29.45,29.39,6,6,6,14,8,,0.00,4,,191
2011-10-27,53,47,41,46,44,39,93,84,76,29.95,29.72,29.53,6,6,6,15,10,,0.00,3,,247
2011-10-28,55,47,39,46,42,37,100,81,67,30.12,30.05,29.98,6,6,6,20,10,31,0.00,5,,194
2011-10-29,60,56,51,55,51,46,94,83,72,29.98,29.81,29.71,6,6,3,22,15,31,0.00,5,Rain,200
2011-10-30,64,56,51,59,52,48,100,86,68,29.89,29.84,29.74,6,6,6,15,11,,0.00,6,Rain,188
2011-10-31,60,55,50,57,52,46,100,88,72,29.74,29.61,29.53,6,6,2,22,13,,0.00,6,Rain,182